Regional Weather Roundup
Issued by NWS

Home | Current Version | Previous Version | Graphics & Text | Print | Product List | Glossary Off
Versions: 1 2 3 4 5 6 7 8 9 10 11 12 13 14 15 16 17 18 19 20 21 22 23 24 25 26 27 28 29 30 31 32 33 34 35 36 37 38 39 40 41 42 43 44 45 46 47 48 49 50

000
ASUS43 KFSD 170810
RWRSD

WEATHER ROUNDUP FOR SOUTH DAKOTA
NATIONAL WEATHER SERVICE SIOUX FALLS SD
200 AM CST TUE JAN 17 2017

NOTE: "FAIR" INDICATES FEW OR NO CLOUDS BELOW 12,000 FEET WITH NO
SIGNIFICANT WEATHER AND/OR OBSTRUCTIONS TO VISIBILITY.


SDZ001>005-009-010-012>017-170900-
NORTHWEST AND NORTH CENTRAL SOUTH DAKOTA

CITY           SKY/WX    TMP DP  RH WIND       PRES   REMARKS
BUFFALO          N/A     16   8  71 SW5       29.92F WCI   9
FAITH            N/A     15   9  76 W7        30.02F WCI   5
MOBRIDGE       CLOUDY    11   6  81 NW7       30.02S WCI   0
$$

SDZ012>016-024>037-041>051-057-063-072>074-170900-
SOUTHWEST AND SOUTH CENTRAL SOUTH DAKOTA

CITY           SKY/WX    TMP DP  RH WIND       PRES   REMARKS
RAPID CTY ARPT CLOUDY    17   9  70 CALM      30.03F
PIERRE         CLOUDY    15  11  83 W7        30.05F WCI   5
CUSTER         CLOUDY    21   4  47 S5        29.99F WCI  15
ELLSWORTH AFB  CLOUDY    18  11  75 W5        30.02F WCI  11
PHILIP         CLOUDY    13   8  81 SW6       30.06F WCI   4
PINE RIDGE     CLOUDY     2  -1  88 E5        30.06F WCI  -8
SPEARFISH      FAIR      23   9  54 CALM      30.00F
WINNER         FAIR      16  12  84 W5        30.05S WCI   9
$$

SDZ004>011-016>023-039-040-170900-
NORTHEAST SOUTH DAKOTA

CITY           SKY/WX    TMP DP  RH WIND       PRES   REMARKS
ABERDEEN       CLOUDY     2  -1  88 W7        30.04S WCI -11
WATERTOWN      CLOUDY     1  -2  87 CALM      29.97F FOG
SISSETON         N/A      6   5  95 CALM      30.00F
$$

SDZ017-020-022-023-036>040-048>070-170900-
SOUTHEAST SOUTH DAKOTA

CITY           SKY/WX    TMP DP  RH WIND       PRES   REMARKS
SIOUX FALLS    FOG       22  22 100 W8        29.99S VSB 1/2 WCI  12
HURON          CLOUDY     4   2  91 NW7       30.04F WCI  -8
CHAMBERLAIN    CLOUDY    13  11  90 W8        30.04F WCI   2
MITCHELL       CLOUDY    10   7  87 W7        30.05F WCI  -1
YANKTON        CLOUDY    16   9  73 CALM      30.04S
$$

ABBREVIATIONS USED IN REMARKS
   TC - TEMPERATURE IN CELSIUS
  WCI - WIND CHILL INDEX
   HX - HEAT INDEX
  VSB - VISIBILITY




USA.gov is the U.S. government's official web portal to all federal, state and local government web resources and services.